Weather History for KMYP - April, 2013

Change the Weather History Date:

Wednesday, April 24, 2013

  Actual Average (KGUC) Record (KGUC)
Temperature  
Mean Temperature 19 °F -  
Max Temperature 28 °F 54 °F 73 °F (2012)
Min Temperature 10 °F 25 °F 21 °F (2004)
Degree Days  
Heating Degree Days 46    
Moisture  
Dew Point 3 °F    
Average Humidity 51    
Maximum Humidity 63    
Minimum Humidity 39    
Precipitation  
Precipitation 0.00 in - - ()
Sea Level Pressure  
Sea Level Pressure 30.29 in    
Wind  
Wind Speed 23 mph (West)    
Max Wind Speed 39 mph    
Max Gust Speed 46 mph    
Averages and records for this station are not official NWS values.
T = Trace of Precipitation, MM = Missing Value Source: NWS Daily Summary

Daily Weather History Graph

Daily Weather History Graph

Search for Another Location

Airport or City:

Trip Planner

Search our weather history database for the weather conditions in past years. The results will help you decide how hot, cold, wet, or windy it might be!

Date:

Astronomy

Apr. 24, 2013 Rise Set
Actual Time 6:16 AM MDT 7:50 PM MDT
Civil Twilight 5:48 AM MDT 8:18 PM MDT
Nautical Twilight 5:14 AM MDT 8:52 PM MDT
Astronomical Twilight 4:39 AM MDT 9:28 PM MDT
Moon 6:57 PM MDT (4/24) 5:21 AM MDT (4/24)
Length of Visible Light 14h 30m
Length of Day
13h 34m
Waxing Gibbous, 98% of the Moon is Illuminated
Apr 24
Waxing Gibbous
Apr 25
Full
May 2
Last Quarter
May 9
New
May 17
First Quarter

Hourly Weather History & Observations

Time (MDT) Temp. Windchill Dew Point Humidity Pressure Visibility Wind Dir Wind Speed Gust Speed Precip Events Conditions
12:12 AM 12.2 °F - -7.6 °F 41% 30.22 in - North - - N/A   Clear
12:32 AM 12.2 °F - -5.8 °F 45% 30.22 in - North - - N/A   Clear
12:52 AM 12.2 °F - -4.0 °F 48% 30.22 in - North - - N/A   Clear
1:12 AM 12.2 °F - -4.0 °F 48% 30.22 in - North - - N/A   Clear
1:32 AM 12.2 °F - -5.8 °F 45% 30.21 in - North - - N/A   Clear
1:52 AM 12.2 °F - -5.8 °F 45% 30.21 in - North - - N/A   Clear
2:12 AM 12.2 °F - -4.0 °F 48% 30.21 in - North - - N/A   Clear
2:32 AM 10.4 °F - -4.0 °F 52% 30.20 in - North - - N/A   Clear
2:52 AM 10.4 °F - -4.0 °F 52% 30.20 in - North - - N/A   Clear
3:12 AM 12.2 °F - -0.4 °F 57% 30.20 in - North - - N/A   Scattered Clouds
3:32 AM 12.2 °F - -0.4 °F 57% 30.19 in - North - - N/A   Overcast
3:52 AM 12.2 °F - -0.4 °F 57% 30.19 in - North - - N/A   Overcast
4:12 AM 12.2 °F - 1.4 °F 62% 30.20 in - North - - N/A   Overcast
4:32 AM 12.2 °F - 1.4 °F 62% 30.19 in - North - - N/A   Mostly Cloudy
4:52 AM 12.2 °F - -0.4 °F 57% 30.19 in - North - - N/A   Mostly Cloudy
5:12 AM 12.2 °F - -2.2 °F 53% 30.20 in - North - - N/A   Overcast
5:32 AM 12.2 °F - -2.2 °F 53% 30.20 in - North - - N/A   Overcast
5:52 AM 12.2 °F - -0.4 °F 57% 30.20 in - North - - N/A   Overcast
6:12 AM 12.2 °F - -2.2 °F 53% 30.20 in - North - - N/A   Overcast
6:32 AM 12.2 °F - -2.2 °F 53% 30.20 in - North - - N/A   Overcast
6:52 AM 12.2 °F - -2.2 °F 53% 30.21 in - North - - N/A   Overcast
7:12 AM 12.2 °F - -0.4 °F 57% 30.22 in - North - - N/A   Overcast
7:32 AM 12.2 °F - -0.4 °F 57% 30.22 in - North - - N/A   Overcast
7:52 AM 14.0 °F - -0.4 °F 53% 30.23 in - North - - N/A   Overcast
8:12 AM 14.0 °F - 1.4 °F 57% 30.24 in - North - - N/A   Overcast
8:32 AM 14.0 °F -3.4 °F 1.4 °F 57% 30.25 in - WSW 19.6 mph - N/A   Overcast
8:52 AM 15.8 °F - 1.4 °F 53% 30.25 in - North - - N/A   Overcast
9:12 AM 15.8 °F - 1.4 °F 53% 30.25 in - North - - N/A   Overcast
9:32 AM 17.6 °F - 1.4 °F 49% 30.26 in - North - - N/A   Overcast
9:52 AM 17.6 °F - 1.4 °F 49% 30.27 in - North - - N/A   Overcast
10:12 AM 17.6 °F - 3.2 °F 53% 30.27 in - North - - N/A   Overcast
10:32 AM 17.6 °F - 5.0 °F 58% 30.28 in - North - - N/A   Overcast
10:52 AM 19.4 °F 0.8 °F 6.8 °F 58% 30.29 in - WSW 28.8 mph - N/A   Overcast
11:12 AM 17.6 °F - 6.8 °F 63% 30.29 in - North - - N/A   Overcast
11:32 AM 19.4 °F 2.8 °F 8.6 °F 63% 30.30 in - WSW 21.9 mph - N/A   Overcast
11:52 AM 19.4 °F - 8.6 °F 63% 30.30 in - North - - N/A   Overcast
12:12 PM 21.2 °F 2.7 °F 8.6 °F 58% 30.30 in - West 31.1 mph 39.1 mph N/A   Overcast
12:32 PM 21.2 °F 2.2 °F 10.4 °F 63% 30.30 in - West 33.4 mph 39.1 mph N/A   Overcast
12:52 PM 21.2 °F 3.3 °F 8.6 °F 58% 30.30 in - WSW 28.8 mph 44.9 mph N/A   Overcast
1:12 PM 21.2 °F 3.9 °F 8.6 °F 58% 30.31 in - West 26.5 mph 46.0 mph N/A   Overcast
1:32 PM 23.0 °F 3.7 °F 10.4 °F 59% 30.31 in - West 38.0 mph 46.0 mph N/A   Overcast
1:52 PM 23.0 °F 3.4 °F 10.4 °F 59% 30.32 in - West 39.1 mph 46.0 mph N/A   Mostly Cloudy
2:12 PM 23.0 °F 5.7 °F 10.4 °F 59% 30.33 in - West 28.8 mph 46.0 mph N/A   Mostly Cloudy
2:32 PM 24.8 °F 9.6 °F 10.4 °F 54% 30.34 in - WSW 23.0 mph 41.4 mph N/A   Overcast
2:52 PM 24.8 °F 9.0 °F 10.4 °F 54% 30.34 in - West 25.3 mph 36.8 mph N/A   Overcast
3:12 PM 26.6 °F 10.3 °F 10.4 °F 51% 30.34 in - West 29.9 mph 38.0 mph N/A   Overcast
3:32 PM 26.6 °F 10.6 °F 8.6 °F 47% 30.34 in - WSW 28.8 mph 35.7 mph N/A   Overcast
3:52 PM 26.6 °F 10.6 °F 8.6 °F 47% 30.34 in - WSW 28.8 mph 38.0 mph N/A   Overcast
4:12 PM 26.6 °F 13.4 °F 8.6 °F 47% 30.34 in - WSW 18.4 mph 34.5 mph N/A   Overcast
4:32 PM 26.6 °F 12.7 °F 8.6 °F 47% 30.34 in - West 20.7 mph 33.4 mph N/A   Overcast
4:52 PM 28.4 °F 14.4 °F 8.6 °F 43% 30.34 in - West 23.0 mph 31.1 mph N/A   Overcast
5:12 PM 28.4 °F 13.0 °F 8.6 °F 43% 30.34 in - West 28.8 mph 35.7 mph N/A   Overcast
5:32 PM 28.4 °F 13.8 °F 8.6 °F 43% 30.35 in - West 25.3 mph 33.4 mph N/A   Overcast
5:52 PM 26.6 °F 12.0 °F 6.8 °F 43% 30.36 in - West 23.0 mph 29.9 mph N/A   Overcast
6:12 PM 26.6 °F 12.4 °F 5.0 °F 40% 30.37 in - WSW 21.9 mph 29.9 mph N/A   Overcast
6:32 PM 26.6 °F 13.4 °F 5.0 °F 40% 30.37 in - SW 18.4 mph 26.5 mph N/A   Overcast
6:52 PM 24.8 °F 12.4 °F 5.0 °F 43% 30.38 in - WSW 15.0 mph 26.5 mph N/A   Overcast
7:12 PM 24.8 °F 10.0 °F 6.8 °F 46% 30.38 in - West 21.9 mph - N/A   Overcast
7:32 PM 26.6 °F 12.0 °F 6.8 °F 43% 30.38 in - West 23.0 mph 27.6 mph N/A   Overcast
7:52 PM 24.8 °F 13.4 °F 5.0 °F 43% 30.39 in - West 12.7 mph 24.2 mph N/A   Scattered Clouds
8:52 PM 23.0 °F 9.6 °F 5.0 °F 46% 30.40 in - West 16.1 mph - N/A   Clear
9:12 PM 23.0 °F 10.6 °F 5.0 °F 46% 30.41 in - WSW 13.8 mph - N/A   Clear
9:32 PM 23.0 °F 12.4 °F 3.2 °F 43% 30.41 in - WNW 10.4 mph - N/A   Clear
9:52 PM 23.0 °F 15.8 °F 3.2 °F 43% 30.42 in - WNW 5.8 mph - N/A   Clear
10:12 PM 23.0 °F 18.4 °F 1.4 °F 39% 30.42 in - NE 3.5 mph - N/A   Clear
10:32 PM 24.8 °F 20.5 °F 3.2 °F 40% 30.42 in - NNW 3.5 mph - N/A   Clear
10:52 PM 24.8 °F 15.3 °F 3.2 °F 40% 30.41 in - WNW 9.2 mph - N/A   Clear
11:12 PM 24.8 °F 15.3 °F 3.2 °F 40% 30.41 in - WNW 9.2 mph - N/A   Clear
11:32 PM 24.8 °F 14.0 °F 3.2 °F 40% 30.40 in - West 11.5 mph 17.3 mph N/A   Clear
11:52 PM 24.8 °F 11.5 °F 3.2 °F 40% 30.39 in - West 17.3 mph - N/A   Clear